Location: Cranford
(40.6578°N, 74.3024°W)
Time: 13:11:21
(UTC+00:00)

Tiangong - Visible Passes

Search period start: 01 December 2022 00:00
Search period end: 11 December 2022 00:00
Orbit: 385 x 393 km, 41.5° (Epoch: 01 December)

Date Brightness Start Highest point End Pass type
(mag) Time Alt. Az. Time Alt. Az. Time Alt. Az.
01 Dec -1.0 22:15:52 10° SW 22:18:48 34° SSE 22:21:23 12° E visible
01 Dec 0.5 23:52:24 10° W 23:53:41 22° W 23:53:41 22° W visible
02 Dec -2.2 22:54:11 10° WSW 22:57:22 79° SSE 22:58:13 45° E visible
03 Dec -0.8 23:32:52 10° W 23:35:01 39° WNW 23:35:01 39° WNW visible
04 Dec -2.2 22:34:31 10° W 22:37:42 81° N 22:39:28 24° ENE visible
05 Dec 1.4 00:11:30 10° W 00:11:45 12° W 00:11:45 12° W visible
05 Dec -2.1 23:13:08 10° W 23:16:11 75° NNW 23:16:11 75° NNW visible
06 Dec -2.1 22:14:40 10° W 22:17:52 74° N 22:20:37 13° E visible
06 Dec 0.4 23:51:39 10° W 23:52:55 22° W 23:52:55 22° W visible
07 Dec -2.2 22:53:11 10° W 22:56:22 88° S 22:57:22 40° ESE visible
08 Dec -0.8 23:31:39 10° W 23:34:11 38° SW 23:34:11 38° SW visible
09 Dec -1.8 22:33:03 10° W 22:36:12 63° SSW 22:38:48 14° ESE visible
10 Dec 1.3 00:10:41 10° WSW 00:11:07 12° WSW 00:11:07 12° WSW visible
10 Dec -0.1 23:11:36 10° W 23:14:18 25° SSW 23:15:52 17° SSE visible
